Temp
14 14 14 14 14 14 14 14 14 14 14 15 15 15 15 14 14 14 14 14 13 13 13 13 13 13 13 13 14 14 13 13 13 13 13 13 13 13 13 13 13 13 13 13 13 13 13 12 12 11 11 11 11 11 11 11 11 10 10 10 10 10 11 11 11 10 10 10 10
14 14 14 14 14 14 14 14 14 14 14 14 15 15 15 14 14 14 14 13 13 13 13 13 13 13 13 13 13 13 13 13 13 13 13 13 13 13 13 13 13 13 13 13 13 13 12 12 11 11 11 11 11 11 11 11 11 10 10 10 10 10 10 10 10 10 10 10 10
13 13 13 13 13 14 14 14 14 14 14 14 14 14 14 14 14 14 14 14 13 13 13 12 12 12 13 13 13 13 13 13 13 13 13 13 13 13 13 13 13 13 13 13 13 13 12 12 11 11 11 11 11 11 11 11 11 11 10 10 10 10 10 10 10 10 10 10 9
13 13 13 13 13 13 14 14 14 14 14 14 14 14 14 14 14 14 14 14 13 13 13 12 12 12 12 13 13 13 13 13 13 13 13 13 13 13 13 13 13 13 12 13 13 12 12 11 11 11 11 11 11 11 11 11 11 11 10 10 10 10 10 10 10 10 9 9 9
13 13 13 13 13 13 13 13 13 13 13 14 14 14 14 14 14 14 14 14 14 13 13 13 12 12 12 13 13 13 13 13 13 13 13 13 13 13 13 13 12 12 12 12 12 12 11 11 10 10 11 11 11 11 11 11 11 10 10 10 10 10 10 10 10 10 10 9 9
12 12 12 12 12 12 12 13 13 13 13 13 13 13 14 14 14 14 14 14 14 14 13 13 13 12 12 12 12 13 13 13 13 13 13 13 13 13 13 13 12 12 12 12 12 12 11 11 11 11 11 11 11 11 11 11 11 11 11 11 10 10 10 10 10 10 10 10 10
12 12 12 12 12 12 12 12 12 12 12 13 13 13 13 13 13 14 14 14 14 14 14 13 13 12 12 12 12 12 13 13 13 13 13 13 13 13 13 13 12 12 12 12 12 12 12 11 12 11 11 11 11 11 11 11 11 11 11 10 10 10 10 10 10 10 10 10 10
11 11 12 12 11 11 12 12 12 12 12 12 12 12 13 13 13 13 14 14 14 14 14 13 13 13 12 12 12 12 12 12 12 13 13 13 13 13 13 13 12 12 12 12 12 12 11 11 11 11 11 11 11 11 11 11 11 11 10 10 10 10 10 10 10 10 10 9 9
11 11 11 11 11 11 11 11 11 11 11 12 12 12 12 12 13 13 13 13 14 14 14 13 13 13 12 12 12 12 12 12 12 12 12 12 12 13 12 12 12 12 12 12 12 11 11 11 11 11 11 11 11 11 11 11 11 10 10 10 10 10 10 10 10 9 9 9 9
11 11 11 11 11 11 11 11 11 11 11 11 11 11 11 12 12 12 13 13 13 13 13 13 13 12 12 12 12 12 12 12 12 12 12 12 12 12 12 12 12 12 12 12 12 11 11 11 10 10 11 11 11 11 11 11 10 10 10 10 10 10 10 9 9 9 9 9 9
11 11 11 10 10 11 10 11 11 11 11 11 11 11 11 11 12 12 12 12 12 13 13 13 13 12 12 12 12 12 12 12 12 12 12 12 12 12 12 12 12 12 12 12 11 11 11 10 10 10 11 11 11 11 11 10 10 10 10 10 10 9 9 9 9 9 8 8 9
10 10 10 10 10 10 10 10 10 10 11 11 11 11 11 11 11 11 11 12 12 12 12 12 12 12 12 12 12 12 12 12 12 12 12 12 12 12 12 12 12 12 11 11 11 11 11 10 10 10 11 11 11 11 10 10 10 10 10 9 9 9 9 8 8 8 8 9 9
10 10 10 10 10 10 10 10 10 10 10 10 11 11 11 11 11 11 11 11 11 11 12 12 12 12 12 12 12 12 12 12 12 12 12 12 12 12 12 11 11 11 11 11 11 11 11 10 10 10 10 10 10 10 10 10 10 9 9 9 9 9 8 8 8 8 9 9 9
10 10 10 10 10 10 10 10 10 10 10 10 10 10 10 10 10 10 10 11 11 11 11 11 11 11 11 11 11 11 11 11 11 11 11 11 11 11 11 11 11 11 11 11 11 11 10 10 10 10 10 10 10 10 10 10 9 9 9 9 9 8 8 8 8 9 9 9 9
9 10 10 10 10 10 10 10 10 10 10 10 10 10 10 10 10 10 10 10 10 10 10 10 10 10 10 11 11 11 11 11 10 10 10 11 11 11 11 11 11 11 11 10 10 10 10 10 10 10 10 9 10 10 9 9 9 9 9 9 9 8 8 8 8 9 9 9 9
9 9 9 9 9 9 9 9 9 9 9 9 9 9 9 9 9 9 9 9 9 9 9 9 9 9 9 9 9 9 10 10 10 10 10 10 10 10 10 10 10 10 10 10 10 10 10 10 10 9 9 9 9 9 9 9 9 9 9 9 9 8 8 8 8 8 8 8 8
8 8 8 8 8 8 9 9 8 8 9 9 9 9 9 8 8 8 8 8 8 8 8 8 8 8 8 8 8 8 9 9 9 9 9 10 10 10 10 10 10 10 10 10 10 10 10 10 9 9 9 9 9 9 9 9 9 9 9 9 8 8 8 8 8 8 8 8 8
8 8 7 8 8 8 7 7 7 7 8 8 8 7 7 7 7 7 7 8 8 8 8 8 8 8 8 8 8 8 8 8 9 9 9 9 9 10 10 10 10 10 10 10 10 9 9 9 9 9 9 9 9 9 9 9 9 9 8 8 8 8 8 8 8 8 7 7 7
7 6 6 6 6 6 6 6 6 7 7 7 7 7 7 7 7 8 8 8 8 8 8 8 8 8 8 8 8 8 8 9 9 9 9 9 9 9 10 10 10 10 9 9 9 9 9 9 9 9 9 9 9 9 9 9 8 8 8 8 8 8 8 7 7 7 7 6 6
6 5 5 5 5 6 6 6 6 6 6 7 7 7 8 8 8 8 8 8 9 9 9 9 9 9 9 9 9 9 9 9 9 9 9 9 9 9 9 9 9 9 9 9 9 9 9 9 9 9 9 9 9 9 8 8 8 8 8 8 7 7 7 7 7 6 6 6 5
5 5 5 5 5 5 6 6 6 6 6 7 7 7 8 8 8 8 8 8 8 8 8 8 8 8 8 8 8 9 9 9 9 9 9 9 9 9 9 9 9 9 9 10 10 10 9 9 9 9 9 9 8 8 8 8 8 7 7 7 7 7 6 6 6 6 5 5 5
5 5 5 5 5 5 5 5 5 6 6 7 7 7 7 7 7 8 8 8 8 8 8 8 8 8 8 8 8 9 9 9 9 9 9 9 9 9 9 9 9 9 9 9 9 9 9 9 9 9 9 8 8 8 8 7 7 7 7 6 6 6 6 5 5 5 5 5 4
5 5 5 5 5 5 5 5 5 5 5 6 6 7 7 7 7 7 7 7 8 8 8 8 8 8 8 8 8 8 8 8 8 8 8 8 8 8 9 9 9 9 9 9 9 9 9 9 9 8 8 8 8 8 7 7 7 6 6 6 6 5 5 5 5 5 4 4 4
4 5 5 5 5 5 5 5 5 5 5 5 6 6 6 6 7 7 7 7 8 8 8 8 8 7 7 7 7 7 7 7 7 8 8 8 8 8 8 8 8 8 8 8 8 8 8 8 8 8 8 8 7 7 7 7 6 6 6 5 5 5 5 4 4 4 4 3 3
4 5 5 5 5 5 5 5 5 5 5 5 5 5 6 6 6 6 6 7 7 7 7 7 7 7 7 7 7 7 7 7 7 7 7 8 8 8 8 8 8 8 8 8 8 8 8 8 8 8 7 7 7 7 6 6 6 5 5 5 4 4 4 4 4 3 3 3 2
5 5 5 5 5 5 5 5 5 5 5 5 5 5 5 6 6 6 6 6 6 6 6 6 6 6 6 7 7 7 7 7 7 7 7 8 8 8 8 7 7 7 7 8 8 7 7 7 7 7 7 7 6 6 6 6 5 5 4 4 4 4 4 3 3 3 3 2 2
5 5 5 5 5 5 5 5 5 5 5 5 5 6 6 6 6 6 6 6 6 6 6 6 6 6 7 7 7 7 7 7 7 7 8 7 7 7 7 7 7 7 7 7 7 7 7 7 6 6 6 6 6 5 5 5 4 4 4 3 3 3 3 3 3 3 2 2 2
5 5 5 5 5 5 5 5 5 5 6 6 6 6 6 6 6 6 6 6 6 6 6 6 7 7 7 7 7 7 7 7 7 7 7 7 7 7 7 7 7 7 7 7 7 6 6 6 6 6 5 5 5 5 4 4 4 4 3 3 3 3 3 3 3 2 2 2 2
4 5 5 5 5 5 5 5 6 6 6 6 6 6 6 6 7 7 7 6 6 6 6 7 7 7 7 7 7 7 7 7 7 7 7 7 7 7 7 7 6 6 6 6 6 6 6 5 5 5 5 5 4 4 4 4 3 3 3 3 3 3 3 3 2 2 2 2 1
4 4 4 4 5 5 5 5 5 6 6 6 6 6 6 6 7 7 7 6 6 6 7 7 7 7 7 7 6 6 6 6 6 6 6 6 6 6 6 6 6 6 6 6 5 5 5 5 5 4 4 4 4 4 4 3 3 3 3 3 3 2 2 2 2 2 2 1 1
4 4 4 4 5 5 5 5 5 5 5 5 6 6 6 6 6 6 6 6 6 6 6 6 6 6 6 6 6 6 6 6 6 6 6 6 6 6 6 6 5 5 5 5 5 4 4 4 4 4 4 3 3 3 3 3 3 3 2 2 2 2 2 2 2 2 1 1 1
4 4 5 5 5 5 5 5 5 5 5 5 5 6 6 6 6 6 6 6 6 6 6 6 6 6 6 6 6 5 5 5 5 5 5 5 5 5 5 5 5 5 5 4 4 4 3 3 3 3 3 3 3 3 3 3 2 2 2 2 2 2 2 1 1 1 1 1 1
4 4 4 4 5 5 5 5 5 5 5 5 5 6 6 6 6 6 6 6 6 6 6 6 6 6 5 5 5 5 5 5 5 5 5 5 5 5 4 4 4 4 4 3 3 3 3 3 2 3 3 3 3 3 2 2 2 2 2 1 1 1 1 1 1 1 1 1 1
4 4 4 4 4 4 5 5 5 5 5 5 6 6 6 6 6 6 6 6 6 6 6 5 5 5 5 5 5 5 5 5 5 5 4 4 4 4 4 4 3 3 3 2 2 2 2 2 2 2 2 2 2 2 2 2 2 1 1 1 1 1 1 1 1 1 1 1 1
4 4 4 4 4 4 4 5 5 5 5 5 6 6 6 6 6 6 5 5 5 5 5 5 5 5 5 5 4 4 4 4 4 4 4 4 3 3 3 3 3 2 2 2 2 1 2 2 2 2 2 2 2 2 2 1 1 1 1 1 1 1 1 1 1 1 0 0 0
4 4 4 4 4 4 4 4 5 5 5 5 5 6 6 6 5 5 5 5 5 5 5 5 5 5 4 4 4 4 3 3 3 3 3 2 2 2 2 2 2 2 1 1 1 1 1 1 1 1 1 1 1 1 1 1 1 1 1 1 1 1 0 0 0 -0 -0 -0 -0
4 4 4 4 4 4 4 4 4 4 5 5 5 5 5 5 5 5 5 5 5 5 5 4 4 4 4 4 3 3 3 2 2 2 2 1 1 1 1 2 1 1 1 1 1 1 1 1 1 1 1 1 1 1 1 1 1 1 1 1 0 0 -0 -0 -1 -1 -1 -1 -1
3 4 4 4 4 4 4 4 4 4 4 4 4 5 5 5 5 4 4 4 4 4 4 4 4 4 3 3 2 2 2 1 1 1 1 1 1 1 1 1 1 1 1 1 1 1 1 1 1 1 1 1 1 1 1 1 1 1 0 0 0 -0 -0 -1 -1 -1 -1 -1 -1
3 4 4 4 4 4 4 4 4 4 4 4 4 4 4 4 4 4 4 4 4 4 4 3 3 3 2 2 2 1 1 1 0 0 0 0 0 0 0 0 0 0 1 1 1 1 1 1 1 1 1 1 1 1 1 1 0 0 0 -0 -0 -0 -0 -1 -1 -1 -1 -1 -1
3 3 4 4 4 4 4 4 4 4 4 4 4 4 4 4 4 4 3 3 3 3 3 3 2 2 1 1 1 1 0 0 0 -0 -0 -0 -0 -0 -0 -0 0 0 0 1 1 1 1 1 1 1 1 1 1 1 1 1 0 0 0 -0 -0 -0 -0 -0 -1 -1 -1 -1 -1
3 3 4 4 4 4 4 4 4 4 4 4 3 3 3 3 3 3 3 3 3 2 2 2 2 1 1 0 0 0 0 -0 -0 -0 -0 -0 -0 -0 -0 -0 -0 0 0 1 1 1 1 1 1 1 1 1 1 1 1 0 0 0 0 -0 -0 -0 -1 -1 -1 -1 -1 -1 -2
Height
1500 1500 1500 1500 1500 1500 1500 1500 1500 1500 1500 1500 1500 1500 1501 1501 1501 1501 1501 1502 1502 1502 1502 1503 1503 1504 1504 1505 1505 1506 1506 1507 1507 1508 1508 1509 1509 1510 1511 1511 1512 1512 1512 1512 1512 1512 1512 1512 1512 1512 1512 1512 1512 1512 1513 1514 1515 1516 1517 1517 1517 1516 1516 1516 1516 1517 1517 1518 1518
1499 1499 1499 1499 1499 1499 1499 1499 1499 1499 1499 1499 1499 1499 1499 1499 1499 1499 1499 1500 1500 1500 1501 1501 1502 1502 1503 1503 1504 1504 1505 1505 1506 1506 1506 1507 1508 1509 1509 1509 1510 1510 1510 1510 1510 1510 1510 1510 1510 1510 1511 1511 1511 1511 1512 1513 1514 1514 1515 1515 1515 1514 1514 1515 1515 1515 1516 1516 1516
1497 1497 1497 1498 1498 1498 1498 1498 1498 1497 1497 1497 1497 1497 1497 1497 1497 1497 1498 1498 1498 1499 1499 1499 1500 1501 1501 1502 1502 1503 1503 1504 1504 1504 1505 1505 1506 1507 1507 1508 1508 1508 1508 1508 1508 1509 1509 1508 1508 1509 1510 1510 1510 1510 1511 1511 1512 1513 1513 1513 1514 1514 1514 1514 1514 1514 1514 1514 1514
1495 1495 1496 1496 1496 1496 1496 1496 1496 1496 1496 1496 1496 1496 1496 1496 1496 1496 1496 1496 1496 1497 1497 1498 1499 1499 1500 1500 1501 1501 1502 1502 1502 1503 1503 1504 1504 1505 1505 1506 1506 1506 1506 1507 1507 1507 1506 1506 1507 1508 1508 1509 1509 1509 1510 1510 1510 1511 1511 1512 1512 1512 1512 1512 1512 1512 1512 1512 1512
1494 1494 1494 1494 1494 1494 1494 1494 1494 1494 1494 1494 1494 1494 1494 1494 1494 1494 1494 1494 1495 1495 1496 1496 1497 1498 1499 1499 1500 1500 1500 1500 1501 1501 1502 1502 1503 1503 1504 1504 1504 1504 1504 1505 1505 1504 1504 1504 1505 1506 1506 1507 1508 1508 1508 1508 1509 1509 1509 1510 1509 1509 1510 1510 1510 1510 1510 1509 1509
1492 1492 1492 1492 1492 1492 1492 1492 1492 1492 1492 1493 1493 1493 1493 1493 1493 1493 1493 1493 1493 1494 1494 1495 1495 1496 1497 1498 1498 1499 1499 1499 1499 1499 1500 1500 1501 1502 1502 1503 1503 1504 1504 1504 1504 1504 1504 1504 1504 1504 1505 1506 1506 1506 1506 1507 1507 1507 1508 1508 1508 1508 1508 1508 1508 1508 1508 1508 1508
1491 1491 1491 1490 1490 1490 1490 1490 1490 1490 1491 1491 1491 1491 1491 1491 1491 1491 1491 1491 1492 1492 1493 1493 1494 1495 1495 1496 1496 1497 1497 1497 1498 1498 1499 1499 1500 1500 1501 1501 1501 1502 1502 1503 1503 1503 1503 1503 1503 1504 1504 1505 1505 1505 1505 1505 1505 1506 1506 1506 1506 1506 1506 1506 1506 1506 1506 1506 1505
1489 1489 1489 1489 1489 1489 1489 1489 1489 1489 1489 1489 1489 1489 1489 1489 1489 1489 1490 1490 1490 1491 1491 1492 1492 1493 1494 1494 1494 1495 1495 1496 1496 1497 1497 1498 1498 1499 1499 1499 1500 1500 1501 1501 1501 1502 1502 1502 1503 1503 1504 1504 1504 1504 1504 1504 1504 1504 1504 1504 1504 1504 1505 1505 1504 1504 1504 1504 1504
1488 1488 1488 1488 1488 1487 1487 1487 1487 1488 1488 1488 1488 1488 1488 1488 1488 1488 1488 1489 1489 1489 1490 1490 1491 1491 1492 1492 1493 1494 1494 1494 1495 1495 1496 1496 1497 1497 1498 1498 1499 1499 1499 1500 1500 1500 1500 1501 1502 1502 1502 1502 1502 1502 1502 1502 1502 1503 1503 1503 1503 1503 1503 1503 1503 1502 1502 1502 1501
1486 1486 1486 1486 1486 1486 1486 1486 1486 1486 1486 1486 1486 1486 1486 1486 1486 1487 1487 1487 1488 1488 1488 1488 1489 1489 1490 1490 1491 1492 1492 1493 1493 1494 1494 1495 1495 1496 1496 1497 1497 1498 1498 1498 1498 1499 1499 1500 1500 1500 1501 1501 1501 1500 1501 1501 1501 1501 1501 1501 1501 1501 1501 1501 1501 1500 1500 1499 1499
1485 1485 1485 1485 1485 1485 1485 1485 1485 1485 1485 1485 1485 1485 1485 1485 1485 1486 1486 1486 1486 1486 1487 1487 1487 1488 1488 1489 1490 1490 1491 1491 1492 1493 1493 1494 1494 1494 1495 1495 1496 1496 1496 1497 1497 1498 1498 1499 1499 1499 1499 1499 1499 1499 1499 1499 1500 1500 1500 1499 1499 1499 1499 1499 1499 1498 1498 1498 1497
1484 1484 1484 1484 1484 1484 1484 1484 1484 1484 1484 1484 1484 1484 1484 1484 1484 1485 1485 1485 1485 1485 1485 1486 1486 1486 1487 1488 1488 1489 1489 1490 1491 1491 1492 1493 1493 1493 1494 1494 1494 1495 1495 1496 1496 1497 1497 1498 1498 1498 1498 1498 1498 1498 1498 1498 1498 1498 1498 1498 1498 1498 1497 1497 1497 1496 1496 1496 1496
1483 1483 1483 1483 1483 1483 1483 1483 1483 1483 1483 1483 1483 1483 1483 1484 1484 1484 1484 1484 1484 1484 1485 1485 1485 1485 1486 1486 1487 1488 1488 1489 1489 1490 1491 1491 1492 1492 1493 1493 1493 1494 1494 1494 1495 1495 1496 1496 1497 1497 1496 1496 1496 1496 1497 1497 1497 1497 1497 1496 1496 1496 1496 1495 1495 1495 1495 1494 1494
1482 1482 1482 1483 1483 1483 1483 1483 1482 1482 1482 1482 1482 1482 1483 1483 1483 1483 1483 1484 1484 1484 1484 1484 1484 1485 1485 1485 1486 1487 1487 1488 1488 1489 1489 1490 1490 1491 1491 1492 1492 1493 1493 1494 1494 1494 1494 1495 1495 1495 1495 1495 1495 1495 1495 1495 1495 1495 1495 1495 1494 1494 1494 1494 1494 1494 1493 1493 1493
1482 1482 1482 1482 1482 1482 1482 1482 1481 1481 1482 1482 1482 1482 1482 1482 1482 1483 1483 1483 1483 1483 1483 1484 1484 1484 1484 1485 1485 1486 1486 1487 1487 1488 1488 1489 1489 1490 1490 1491 1491 1492 1492 1492 1492 1493 1493 1493 1494 1494 1494 1494 1494 1494 1494 1494 1494 1494 1493 1493 1493 1493 1493 1493 1492 1492 1492 1491 1491
1481 1481 1481 1481 1481 1481 1481 1481 1481 1481 1481 1481 1481 1481 1481 1481 1482 1482 1482 1482 1482 1482 1483 1483 1483 1484 1484 1484 1484 1485 1485 1486 1486 1487 1488 1488 1489 1489 1489 1490 1490 1491 1491 1491 1491 1491 1492 1492 1492 1492 1493 1493 1493 1492 1492 1492 1492 1492 1492 1492 1492 1492 1491 1491 1491 1491 1490 1490 1490
1480 1480 1480 1480 1480 1480 1480 1480 1480 1480 1480 1480 1480 1481 1481 1481 1481 1481 1481 1482 1482 1482 1482 1483 1483 1484 1484 1484 1484 1485 1485 1486 1486 1487 1487 1488 1488 1489 1489 1489 1489 1489 1490 1490 1490 1490 1490 1491 1491 1491 1491 1491 1491 1491 1491 1491 1491 1491 1491 1490 1490 1490 1490 1490 1490 1489 1489 1489 1489
1479 1479 1479 1479 1479 1479 1479 1480 1480 1480 1480 1480 1480 1480 1480 1481 1481 1481 1482 1482 1482 1482 1483 1483 1483 1484 1484 1484 1484 1484 1485 1485 1486 1486 1487 1487 1487 1488 1488 1488 1489 1489 1489 1489 1489 1489 1489 1489 1489 1489 1489 1489 1489 1489 1489 1489 1489 1489 1489 1489 1489 1489 1489 1489 1489 1488 1488 1488 1488
1478 1479 1479 1479 1479 1479 1479 1479 1479 1480 1480 1480 1480 1481 1481 1481 1481 1482 1482 1482 1482 1483 1483 1483 1483 1484 1484 1484 1484 1484 1485 1485 1485 1486 1486 1486 1487 1487 1487 1487 1487 1487 1488 1488 1488 1488 1488 1488 1488 1488 1488 1488 1488 1489 1489 1489 1489 1489 1488 1488 1488 1488 1488 1488 1488 1487 1487 1487 1487
1478 1478 1478 1478 1478 1479 1479 1479 1479 1479 1480 1480 1480 1481 1481 1481 1481 1481 1482 1482 1482 1482 1482 1483 1483 1483 1483 1483 1484 1484 1484 1484 1485 1485 1485 1485 1485 1486 1486 1486 1486 1486 1486 1486 1487 1487 1487 1487 1487 1487 1487 1487 1488 1488 1488 1488 1488 1488 1487 1487 1487 1487 1487 1487 1487 1487 1487 1486 1486
1477 1477 1478 1478 1478 1478 1478 1479 1479 1479 1479 1480 1480 1480 1480 1480 1480 1481 1481 1481 1481 1481 1481 1482 1482 1482 1482 1482 1483 1483 1483 1484 1484 1484 1484 1484 1484 1484 1485 1485 1485 1485 1485 1485 1486 1486 1486 1486 1486 1486 1487 1487 1487 1487 1487 1487 1487 1487 1487 1487 1487 1487 1487 1487 1486 1486 1486 1486 1486
1476 1477 1477 1477 1477 1477 1478 1478 1478 1478 1479 1479 1479 1479 1479 1479 1480 1480 1480 1480 1480 1480 1480 1481 1481 1481 1481 1482 1482 1482 1482 1483 1483 1483 1484 1484 1484 1484 1484 1484 1484 1484 1484 1485 1485 1485 1485 1485 1486 1486 1486 1486 1486 1486 1486 1486 1486 1486 1486 1486 1486 1486 1486 1486 1486 1486 1486 1485 1485
1476 1476 1476 1476 1476 1477 1477 1477 1477 1477 1478 1478 1478 1478 1479 1479 1479 1479 1479 1479 1479 1479 1479 1479 1480 1480 1480 1481 1481 1481 1482 1482 1482 1483 1483 1483 1483 1483 1483 1483 1484 1484 1484 1484 1484 1485 1485 1485 1485 1485 1485 1485 1485 1485 1485 1485 1485 1485 1486 1486 1486 1486 1486 1485 1485 1485 1485 1485 1484
1475 1476 1476 1476 1476 1476 1477 1477 1477 1477 1477 1477 1478 1478 1478 1478 1478 1478 1478 1478 1478 1478 1478 1479 1479 1479 1480 1480 1480 1480 1481 1481 1481 1482 1482 1482 1482 1482 1483 1483 1483 1483 1484 1484 1484 1484 1484 1484 1484 1485 1485 1485 1485 1485 1484 1485 1485 1485 1485 1485 1485 1485 1485 1485 1484 1484 1484 1484 1484
1475 1476 1476 1476 1476 1476 1476 1477 1477 1477 1477 1477 1477 1477 1477 1477 1477 1477 1477 1477 1477 1478 1478 1478 1479 1479 1479 1479 1479 1480 1480 1480 1481 1481 1481 1481 1482 1482 1482 1482 1482 1483 1483 1483 1484 1484 1484 1484 1484 1484 1484 1484 1484 1484 1484 1484 1484 1484 1484 1484 1484 1484 1484 1484 1484 1484 1483 1483 1483
1476 1476 1476 1476 1476 1476 1477 1477 1476 1476 1476 1476 1476 1477 1477 1476 1477 1477 1477 1477 1477 1477 1478 1478 1478 1479 1479 1479 1479 1479 1480 1480 1480 1480 1481 1481 1481 1481 1482 1482 1482 1482 1482 1483 1483 1483 1483 1483 1483 1483 1483 1483 1483 1483 1483 1483 1483 1483 1483 1483 1483 1484 1484 1483 1483 1483 1483 1482 1482
1476 1476 1476 1476 1476 1477 1476 1476 1476 1476 1476 1476 1476 1476 1476 1476 1476 1477 1477 1477 1477 1477 1478 1478 1478 1479 1479 1479 1479 1479 1480 1480 1480 1480 1481 1481 1481 1481 1481 1481 1482 1482 1482 1482 1482 1483 1483 1483 1483 1483 1483 1482 1482 1482 1482 1482 1482 1482 1482 1483 1483 1483 1483 1483 1483 1482 1482 1482 1482
1476 1476 1476 1476 1477 1477 1477 1476 1476 1476 1476 1476 1476 1476 1476 1477 1477 1477 1477 1477 1477 1478 1478 1478 1479 1479 1479 1479 1479 1480 1480 1480 1480 1481 1481 1481 1481 1481 1481 1482 1482 1482 1482 1482 1482 1482 1482 1482 1482 1482 1482 1482 1482 1482 1482 1481 1481 1482 1482 1482 1483 1483 1483 1482 1482 1482 1482 1481 1481
1476 1476 1476 1477 1477 1477 1477 1477 1477 1476 1476 1476 1476 1477 1477 1477 1477 1477 1477 1478 1478 1478 1479 1479 1479 1479 1479 1479 1480 1480 1480 1480 1481 1481 1481 1481 1481 1482 1482 1482 1482 1482 1482 1482 1482 1482 1482 1482 1481 1481 1481 1481 1481 1481 1481 1481 1481 1481 1481 1482 1482 1482 1482 1482 1482 1481 1481 1481 1481
1476 1476 1476 1477 1477 1477 1477 1477 1477 1477 1477 1477 1477 1477 1477 1477 1478 1478 1478 1478 1478 1479 1479 1479 1479 1479 1479 1480 1480 1480 1480 1481 1481 1481 1481 1481 1481 1481 1481 1481 1481 1481 1481 1481 1481 1481 1481 1481 1481 1480 1480 1480 1480 1480 1480 1481 1481 1481 1481 1481 1481 1481 1481 1481 1481 1481 1481 1481 1480
1476 1476 1477 1477 1477 1477 1477 1477 1477 1477 1477 1477 1477 1477 1478 1478 1478 1478 1478 1478 1479 1479 1479 1479 1479 1479 1480 1480 1480 1480 1480 1481 1481 1481 1481 1481 1481 1481 1481 1481 1481 1481 1481 1481 1481 1481 1480 1480 1480 1480 1480 1480 1480 1480 1480 1480 1480 1480 1481 1481 1481 1481 1481 1481 1481 1480 1480 1480 1480
1476 1476 1477 1477 1477 1477 1477 1477 1477 1477 1478 1477 1477 1478 1478 1478 1478 1478 1478 1479 1479 1479 1479 1479 1479 1480 1480 1480 1480 1480 1480 1480 1480 1480 1480 1480 1480 1480 1480 1480 1480 1480 1480 1480 1480 1480 1480 1480 1480 1480 1480 1480 1480 1480 1480 1480 1480 1480 1480 1480 1480 1480 1480 1480 1480 1480 1480 1480 1480
1476 1477 1477 1477 1477 1477 1477 1478 1478 1478 1478 1478 1478 1478 1478 1478 1478 1478 1478 1479 1479 1479 1479 1479 1479 1479 1480 1479 1479 1479 1479 1479 1479 1479 1479 1479 1479 1479 1479 1480 1480 1479 1479 1479 1479 1480 1480 1480 1479 1479 1479 1479 1479 1479 1479 1479 1480 1480 1480 1480 1480 1480 1480 1480 1480 1480 1480 1480 1481
1476 1477 1477 1477 1477 1477 1477 1478 1478 1478 1478 1478 1478 1478 1478 1478 1478 1478 1478 1479 1479 1479 1479 1479 1479 1479 1479 1479 1479 1479 1479 1479 1479 1479 1479 1479 1479 1479 1479 1479 1479 1479 1479 1479 1479 1479 1479 1479 1479 1479 1479 1479 1479 1479 1479 1479 1479 1480 1480 1480 1480 1480 1480 1480 1480 1481 1481 1481 1481
1476 1476 1477 1477 1477 1477 1477 1477 1477 1477 1477 1477 1477 1477 1477 1477 1478 1478 1478 1478 1479 1479 1479 1479 1479 1478 1478 1478 1479 1479 1478 1478 1478 1478 1479 1479 1479 1479 1479 1479 1479 1479 1479 1479 1479 1479 1479 1479 1479 1479 1479 1479 1479 1479 1479 1479 1480 1480 1480 1480 1480 1480 1480 1481 1481 1481 1481 1481 1481
1476 1476 1476 1476 1476 1476 1477 1477 1477 1477 1477 1477 1476 1477 1477 1477 1477 1477 1478 1478 1478 1478 1478 1478 1478 1478 1478 1478 1478 1478 1478 1478 1478 1478 1479 1479 1479 1479 1479 1479 1479 1479 1479 1479 1479 1479 1479 1479 1479 1479 1479 1479 1479 1479 1479 1479 1480 1480 1480 1480 1480 1481 1481 1481 1481 1481 1481 1481 1481
1476 1476 1476 1476 1476 1476 1476 1476 1476 1476 1476 1476 1476 1476 1476 1477 1477 1477 1477 1478 1478 1478 1478 1478 1477 1477 1477 1478 1478 1478 1478 1478 1478 1478 1479 1479 1479 1479 1479 1479 1479 1479 1479 1479 1479 1479 1479 1479 1479 1479 1479 1479 1479 1479 1480 1480 1480 1480 1480 1480 1481 1481 1481 1481 1481 1480 1480 1480 1480
1475 1475 1476 1476 1476 1476 1476 1476 1476 1476 1476 1476 1476 1476 1476 1476 1476 1477 1477 1477 1477 1477 1477 1477 1477 1477 1477 1477 1477 1478 1478 1478 1478 1478 1479 1479 1479 1479 1479 1479 1479 1479 1479 1479 1479 1479 1479 1479 1479 1479 1479 1479 1480 1480 1480 1480 1480 1480 1480 1480 1480 1480 1480 1480 1480 1480 1480 1479 1479
1475 1475 1475 1475 1475 1475 1475 1475 1475 1476 1476 1476 1476 1476 1476 1476 1476 1476 1477 1477 1477 1477 1477 1477 1477 1477 1477 1477 1477 1477 1477 1478 1478 1478 1479 1479 1479 1479 1479 1479 1479 1479 1479 1479 1479 1479 1480 1480 1480 1480 1480 1480 1480 1480 1480 1480 1480 1480 1480 1480 1480 1480 1480 1480 1479 1479 1479 1479 1479
1474 1474 1474 1474 1475 1475 1475 1475 1475 1475 1475 1475 1475 1475 1476 1476 1476 1476 1476 1476 1476 1476 1476 1476 1476 1477 1477 1477 1477 1477 1478 1478 1478 1479 1479 1479 1479 1479 1479 1480 1480 1480 1480 1480 1480 1480 1480 1480 1480 1480 1480 1480 1480 1480 1480 1480 1480 1480 1480 1480 1480 1479 1479 1479 1479 1479 1479 1478 1478
1474 1474 1474 1474 1474 1474 1474 1475 1475 1475 1475 1475 1475 1475 1475 1475 1476 1476 1476 1476 1476 1476 1476 1476 1476 1477 1477 1477 1478 1478 1478 1478 1479 1479 1479 1479 1479 1479 1480 1480 1480 1480 1480 1480 1480 1480 1480 1480 1480 1480 1480 1480 1480 1480 1480 1480 1480 1480 1479 1479 1479 1479 1479 1479 1479 1478 1478 1478 1477
Wind_Speed
20 20 21 22 22 23 23 24 25 25 26 26 26 26 26 27 27 27 27 27 27 26 26 26 26 26 27 27 26 25 24 22 22 23 24 25 26 27 27 27 27 28 28 28 28 30 31 30 24 18 13 11 12 13 15 16 19 19 17 15 14 13 14 16 19 21 23 23 21
20 19 19 19 20 20 21 21 22 23 23 24 24 25 25 25 25 25 25 25 25 25 24 24 24 24 24 24 24 24 23 22 22 22 23 24 25 25 26 26 27 28 28 28 29 30 30 28 22 16 12 12 12 14 16 17 17 17 15 15 14 15 16 18 20 21 21 20 19
20 19 19 19 20 20 21 21 21 22 22 22 23 23 23 24 24 24 24 24 24 23 23 23 22 22 22 23 23 22 22 21 22 22 23 24 24 25 26 27 27 28 28 28 29 30 28 24 20 17 15 15 15 15 15 16 16 15 15 15 16 17 18 18 19 19 19 18 19
20 20 20 20 20 21 21 22 22 22 22 22 22 22 22 22 23 23 23 23 23 23 23 22 22 22 22 22 22 21 21 21 22 22 23 23 24 25 26 27 27 27 27 28 30 30 26 20 17 16 16 15 14 14 15 16 14 14 15 17 19 19 19 20 19 19 19 19 20
20 20 20 20 20 21 21 22 22 21 21 21 21 21 21 21 21 22 22 23 23 23 23 23 22 22 22 22 22 21 21 21 22 22 23 23 23 24 26 27 26 24 24 26 28 27 22 18 17 17 15 13 14 15 16 15 14 15 18 20 21 21 21 22 22 22 23 23 25
19 19 19 19 19 19 20 20 20 20 21 21 21 20 20 20 20 21 21 22 22 23 23 23 23 23 23 23 23 23 23 23 23 23 23 23 23 24 24 23 22 21 22 24 25 23 19 15 14 13 13 14 15 16 15 15 17 19 21 21 21 22 23 24 24 25 26 28 30
18 18 18 18 18 18 18 18 19 19 20 20 20 20 20 20 20 20 20 21 22 22 23 23 23 23 23 23 23 24 24 24 24 24 24 24 24 23 22 21 20 20 21 22 22 20 16 13 12 12 14 16 17 17 18 19 21 22 22 22 22 23 24 25 27 28 30 32 32
18 18 17 17 17 17 17 17 18 18 18 19 19 19 20 20 20 20 20 20 21 21 22 23 24 24 24 24 24 24 24 24 24 24 24 24 24 23 22 21 20 20 21 21 20 18 16 14 13 15 17 19 20 21 21 23 24 23 23 23 24 25 26 28 30 31 32 31 30
18 17 17 17 17 17 17 17 17 18 18 18 18 19 19 20 20 20 20 19 20 20 21 22 24 25 25 25 25 25 24 24 24 24 24 23 22 21 21 20 20 21 21 21 20 18 16 15 16 18 20 22 22 22 23 24 24 24 24 24 26 27 28 29 30 30 29 28 26
17 17 16 16 16 16 17 17 17 17 18 18 18 19 20 20 20 20 19 19 19 19 20 22 23 25 26 26 25 25 24 23 23 23 22 22 21 20 20 20 21 22 22 21 20 18 17 17 19 21 22 23 22 22 22 24 24 25 25 26 27 28 29 29 28 27 25 24 23
16 16 16 16 16 16 16 16 17 17 17 18 19 19 20 20 20 19 19 18 18 18 19 20 22 24 25 26 25 24 23 22 22 21 20 20 20 20 20 21 21 22 21 20 19 18 18 19 20 22 23 23 22 22 23 25 25 26 26 27 28 28 28 27 25 24 23 23 22
15 15 15 15 15 15 15 15 16 16 17 18 18 19 19 19 19 18 18 18 17 17 17 18 19 21 23 24 24 23 22 21 19 19 18 18 19 19 20 21 21 21 20 19 19 19 20 20 22 23 23 21 21 22 24 25 26 26 26 27 27 26 25 24 23 22 22 22 22
14 14 14 14 14 14 14 15 15 16 17 17 18 18 19 18 18 17 17 16 15 15 14 15 16 17 19 20 20 20 19 18 17 17 17 17 18 19 20 20 20 20 20 20 21 22 22 22 23 23 22 20 21 22 24 25 25 25 25 25 25 23 22 21 21 21 21 20 20
13 13 13 13 13 13 14 14 15 16 16 17 17 17 17 16 15 15 14 13 13 12 12 12 12 13 15 16 16 16 16 16 15 15 16 17 18 18 19 20 20 21 22 22 23 23 23 23 24 23 21 20 21 22 23 24 24 24 23 22 21 20 19 19 19 19 18 18 18
11 12 12 12 12 12 13 14 15 15 16 16 16 15 14 13 13 12 12 11 11 10 9 9 9 10 11 12 13 13 13 13 14 14 15 16 17 18 19 19 21 22 22 22 21 21 22 23 23 21 20 20 21 22 23 23 22 21 19 17 16 16 16 16 17 17 17 16 17
10 11 11 11 12 12 12 13 13 14 14 14 13 13 12 11 11 11 10 10 9 9 8 7 7 8 9 10 10 11 12 12 13 14 15 16 17 17 18 20 21 21 21 19 18 19 21 22 21 20 20 21 22 22 22 20 17 15 14 13 13 14 14 15 15 15 16 16 16
10 10 10 11 11 11 11 11 12 12 12 12 11 11 10 9 9 8 7 7 7 7 6 6 6 7 8 8 9 10 11 12 12 13 14 15 16 17 19 20 20 20 19 19 19 20 21 21 20 20 21 21 20 19 17 14 13 12 12 12 12 13 13 14 14 15 15 16 16
9 9 10 10 10 9 9 10 10 10 9 9 8 8 7 6 6 5 5 5 6 6 6 6 7 7 8 9 9 10 11 12 13 14 15 16 17 18 19 20 20 20 20 20 20 20 21 21 21 20 19 17 15 13 11 11 11 11 11 12 12 13 13 13 14 14 14 15 15
8 8 8 8 8 8 8 8 8 7 6 6 6 6 6 6 6 7 7 7 8 8 8 8 9 10 11 11 12 12 13 14 15 16 17 17 18 19 19 20 20 20 20 20 20 20 20 20 19 16 14 12 10 9 9 10 10 11 11 12 12 13 13 13 13 13 13 14 14
7 7 8 8 7 7 7 7 6 6 6 6 7 8 8 9 9 9 10 10 10 10 10 11 12 12 13 13 13 14 14 14 15 16 16 17 17 18 18 19 19 20 20 21 20 19 18 15 13 10 9 8 8 8 9 10 10 11 12 12 12 12 12 12 11 12 12 13 13
7 8 8 9 9 9 8 8 7 8 8 8 9 9 9 10 11 11 11 12 12 12 12 12 12 12 13 13 13 13 14 14 14 15 15 16 17 18 19 19 20 21 20 19 16 13 10 8 7 6 6 7 8 8 9 10 11 11 12 12 12 11 11 11 11 12 12 12 12
8 9 10 10 11 10 10 10 10 11 11 11 10 10 9 9 10 10 11 13 13 14 14 14 13 14 14 14 14 15 15 15 16 16 16 17 18 19 19 19 18 16 13 10 8 6 5 5 5 6 7 7 8 8 9 10 11 11 12 11 11 11 11 11 11 12 11 11 10
8 9 9 8 8 8 8 9 10 12 13 13 12 11 10 9 9 10 12 13 14 15 16 15 14 13 12 12 12 12 13 13 13 14 14 15 14 14 13 11 9 7 5 4 4 4 4 5 6 7 7 8 8 9 9 10 11 11 11 11 10 10 10 11 10 10 9 8 7
4 2 2 2 2 2 4 6 8 9 10 10 11 11 11 10 10 11 12 13 14 14 13 11 9 8 7 7 8 7 7 7 8 8 8 8 7 6 5 4 4 4 4 4 5 5 6 7 7 7 7 8 8 9 9 10 10 11 10 10 10 9 9 8 8 7 6 5 4
2 2 1 0 1 2 3 5 6 6 7 7 7 8 8 9 10 10 10 10 10 9 7 4 3 3 3 3 3 3 3 3 3 3 3 3 3 3 3 4 5 5 6 6 6 7 7 7 7 7 7 8 8 9 9 10 9 9 9 8 7 7 6 6 5 4 3 3 2
2 2 2 3 3 4 4 5 5 6 7 7 7 7 7 6 6 6 5 5 4 2 1 1 1 1 1 1 1 1 1 1 1 0 1 2 3 4 5 6 7 7 7 7 7 8 8 8 7 7 7 8 8 9 9 9 8 7 7 6 5 5 4 4 3 2 2 1 1
3 4 4 5 5 5 5 5 6 7 7 8 7 6 5 3 2 2 1 1 1 1 0 0 0 0 0 1 1 1 1 1 1 2 2 3 4 5 6 7 7 7 7 8 8 8 8 7 7 7 7 8 8 8 8 8 6 5 4 4 4 4 3 2 2 1 1 0 1
5 5 5 6 5 5 6 6 7 7 7 7 6 4 2 0 1 1 2 2 2 2 1 1 1 0 0 1 1 1 2 2 3 4 4 5 6 7 7 7 7 7 7 7 7 7 7 6 6 6 6 6 7 7 7 5 4 3 3 4 3 2 1 1 1 0 0 1 1
6 6 6 6 6 6 7 8 8 8 8 6 4 2 1 1 2 2 3 3 3 2 2 2 1 0 1 2 2 3 3 4 5 6 6 7 7 7 7 7 7 7 6 6 6 6 6 5 5 4 4 4 4 4 4 2 2 2 2 2 1 0 1 1 1 0 1 1 2
7 7 6 7 7 7 8 8 8 7 6 5 3 2 2 2 2 2 3 3 3 3 2 2 1 2 2 3 4 4 5 6 6 7 7 7 7 7 6 6 6 6 6 6 6 5 5 4 3 3 2 2 2 2 1 1 2 2 2 1 2 2 2 2 1 1 1 1 1
7 7 7 7 7 7 7 6 6 5 5 4 3 2 2 2 2 2 2 2 2 2 2 2 2 3 4 4 5 5 5 5 5 5 5 5 5 5 5 5 6 5 5 5 5 4 4 3 2 2 1 1 1 1 2 2 3 3 3 3 3 3 3 2 2 2 2 1 1
7 7 6 6 5 4 3 2 2 2 2 2 2 2 2 2 2 2 2 2 2 3 3 4 4 4 4 4 4 4 4 4 3 4 4 4 5 5 5 5 5 5 5 4 4 3 3 2 2 2 2 2 3 3 3 4 4 4 4 4 4 4 3 3 2 2 2 1 1
6 6 5 4 3 1 0 0 1 1 1 1 1 2 2 3 4 4 4 3 3 4 4 4 4 4 4 4 4 4 3 3 3 4 5 5 5 6 6 6 5 5 4 4 4 3 3 3 3 4 4 4 5 5 5 5 5 4 4 4 4 3 3 3 2 2 1 1 1
5 5 4 3 2 1 1 2 2 3 4 4 4 4 4 4 5 5 4 4 4 3 3 3 3 3 3 3 3 3 3 4 5 6 6 7 7 6 6 6 5 5 5 5 5 5 4 5 5 5 5 6 6 5 5 5 5 5 4 4 3 3 3 2 2 1 1 2 3
4 3 3 2 1 1 2 3 4 5 6 6 5 5 5 4 4 4 3 3 3 3 3 3 3 3 3 3 4 4 5 6 7 8 7 7 7 6 6 6 5 5 6 6 6 6 6 6 6 6 6 6 6 5 5 5 4 4 4 3 3 2 2 2 2 2 3 4 5
2 2 1 1 2 3 4 5 5 6 6 6 5 4 4 3 3 2 2 2 2 3 3 3 3 3 4 4 5 6 7 7 8 8 7 6 6 5 5 5 6 7 7 7 7 7 6 6 6 6 6 6 5 5 4 4 3 3 2 2 2 2 2 3 4 5 6 7 8
3 2 1 2 4 5 5 5 5 5 4 4 3 2 2 2 2 2 2 2 3 3 4 4 4 4 5 5 6 8 8 8 8 8 7 7 6 5 4 5 7 7 8 7 7 7 6 6 6 6 5 5 4 3 3 2 1 1 1 2 3 4 5 6 6 7 8 9 9
4 3 3 4 5 6 6 5 5 4 4 3 2 2 2 2 2 2 3 3 4 4 4 5 5 6 6 7 8 9 9 9 9 9 8 8 7 6 5 6 7 7 8 7 7 6 5 5 5 4 3 3 2 1 0 1 1 2 3 4 5 5 6 7 8 9 9 10 10
6 5 5 6 7 7 7 7 6 5 4 3 3 2 2 2 2 3 4 4 4 5 5 6 6 7 8 9 10 10 10 10 10 9 9 9 8 7 6 6 7 7 7 6 6 5 4 4 3 2 1 1 1 2 3 4 4 5 6 6 6 7 7 8 9 9 9 10 10
7 7 7 8 8 8 8 7 6 5 4 3 3 3 2 2 3 4 4 4 5 5 6 7 7 8 9 10 11 11 11 11 11 10 9 9 8 8 7 6 6 6 5 5 4 3 3 2 1 1 1 2 3 4 4 5 6 6 7 7 7 7 8 8 8 9 9 9 10
9 9 9 9 9 9 8 7 6 5 4 3 3 3 2 2 3 4 5 5 5 6 7 8 9 10 10 11 11 10 10 11 11 10 9 9 8 7 7 6 5 4 4 3 3 2 1 1 1 2 3 3 4 4 5 6 6 6 6 7 7 7 7 8 8 8 9 9 9
Wind_Direction
252 253 253 254 254 254 255 255 256 256 256 256 256 257 257 258 259 259 259 259 259 258 257 255 253 252 252 251 251 251 253 256 259 260 260 259 259 259 259 260 262 263 263 263 263 262 262 262 263 265 265 260 251 244 242 242 243 248 256 261 260 257 254 252 250 250 252 254 256
259 259 259 259 259 258 258 257 257 257 256 256 256 256 256 256 256 257 257 257 257 256 255 253 252 252 251 251 251 251 253 256 258 260 260 260 260 260 260 260 261 261 260 260 260 260 260 260 258 256 253 248 245 244 243 241 245 252 262 267 266 261 255 251 250 252 257 261 264
265 264 263 262 262 261 260 260 259 259 258 258 257 257 257 256 256 256 256 255 254 253 252 251 250 250 250 251 251 252 253 255 257 259 260 260 261 261 261 260 259 258 258 259 260 259 258 258 255 251 248 248 250 252 252 250 252 260 270 275 276 272 265 259 258 260 264 268 270
267 266 264 263 261 261 260 260 260 260 260 260 259 259 259 259 259 258 257 255 253 251 249 248 247 247 247 249 250 252 253 255 256 258 259 260 261 261 261 259 257 255 257 260 261 259 257 254 251 248 247 251 258 262 259 255 257 267 275 276 275 271 266 262 261 263 267 270 273
266 265 264 263 261 261 261 261 261 261 261 261 261 260 261 261 261 260 259 257 254 251 248 246 245 244 244 245 247 249 251 253 254 256 257 259 260 261 262 261 259 258 258 260 262 261 259 257 255 254 254 257 262 260 256 256 264 274 278 277 274 268 264 261 262 267 272 277 279
264 264 264 263 263 262 262 262 262 261 261 260 260 259 259 259 260 260 259 258 255 252 249 246 243 242 242 243 244 246 248 250 252 253 255 257 258 260 262 263 264 263 262 263 266 267 266 263 263 263 263 263 258 254 254 264 275 280 281 279 274 268 264 264 269 275 280 284 284
262 262 262 263 263 262 262 261 260 260 259 258 257 256 256 256 256 257 258 258 256 253 250 247 244 242 241 242 243 244 246 248 250 252 254 255 257 259 261 263 263 262 262 265 268 269 267 263 265 266 263 258 253 253 260 271 277 280 280 277 273 270 270 273 278 282 284 286 286
260 260 260 260 259 259 259 258 258 257 256 255 254 253 252 252 253 254 255 256 256 254 251 247 244 242 241 241 242 244 245 247 249 251 253 254 256 258 259 260 260 260 261 264 265 264 261 258 260 261 259 257 254 257 264 272 277 279 279 276 274 274 276 279 282 284 286 286 286
256 256 256 256 255 255 255 255 254 253 252 251 250 250 250 250 250 251 252 253 254 253 251 247 244 242 241 241 242 244 245 247 249 250 252 253 255 256 257 258 258 259 260 262 261 259 255 254 258 260 260 257 254 257 265 273 279 280 279 276 275 276 279 282 285 286 287 287 286
253 253 253 252 252 251 252 252 252 251 250 249 249 248 249 250 250 250 251 252 252 251 249 246 243 241 241 241 242 244 246 248 249 250 252 253 254 255 256 256 257 258 259 259 257 254 253 255 259 262 260 255 254 259 269 276 280 280 278 277 277 280 283 287 288 288 287 286 285
250 250 249 249 249 250 250 251 252 252 251 250 249 249 249 250 250 251 251 251 251 250 248 246 244 242 241 241 242 244 246 248 250 251 252 253 254 254 255 255 255 256 256 254 253 252 254 257 261 260 255 252 254 263 272 277 279 278 278 279 283 286 289 291 290 288 286 285 284
247 247 247 247 249 250 251 252 253 253 253 252 251 251 251 251 252 253 253 253 253 253 252 250 248 245 243 243 244 245 247 249 251 251 252 252 252 252 252 252 252 252 252 252 253 255 259 261 261 256 251 250 256 264 270 274 275 277 281 285 289 292 292 291 289 287 285 284 283
246 246 247 248 250 251 253 253 254 254 254 253 252 252 253 253 255 256 257 257 257 258 258 255 252 249 247 246 246 246 248 249 249 249 248 248 247 247 247 248 250 251 252 253 254 257 260 261 257 252 251 254 258 263 268 272 277 282 287 291 293 293 291 289 288 286 285 283 282
247 248 249 251 253 253 253 253 253 253 253 253 253 253 254 256 258 259 259 259 258 258 258 258 255 251 248 246 245 245 245 244 244 242 241 240 241 241 242 245 248 250 250 249 249 251 253 253 251 250 252 258 262 266 271 277 283 288 292 294 293 292 290 289 288 286 284 282 281
250 252 253 253 254 253 252 251 251 252 252 252 253 255 256 257 259 259 257 255 253 252 253 254 252 249 245 243 242 241 240 240 239 238 237 236 236 237 240 243 245 245 244 243 242 243 244 246 247 251 258 266 271 276 280 286 291 294 295 295 293 291 290 288 287 285 283 280 278
250 252 253 253 253 252 251 251 252 252 253 253 255 257 259 259 259 259 258 256 255 253 252 251 251 248 244 242 238 236 236 237 238 238 236 234 234 236 239 241 240 240 239 240 241 241 242 246 252 260 269 276 281 285 289 292 295 296 296 294 292 290 288 287 284 282 279 277 275
244 248 251 252 253 253 253 252 252 253 254 257 260 262 263 265 263 261 259 258 257 260 259 250 248 244 239 237 234 232 231 231 232 233 234 234 235 237 238 239 238 239 240 242 243 245 249 256 264 272 278 283 286 289 293 295 295 294 292 290 288 287 284 282 279 277 275 275 274
239 243 248 251 253 254 253 252 251 252 256 262 268 267 262 260 256 251 247 242 241 248 252 246 243 237 231 230 231 232 230 229 229 230 233 235 237 238 238 239 240 242 244 247 250 255 262 270 276 281 284 286 289 291 292 292 291 288 286 284 282 280 278 275 273 272 272 274 276
238 241 246 248 249 248 249 249 250 254 257 257 256 248 239 235 230 228 226 223 221 222 227 234 232 229 227 226 226 227 229 229 229 230 232 234 236 238 239 241 245 248 253 258 264 270 276 280 282 284 285 287 288 289 288 287 285 283 281 278 276 273 270 269 269 271 273 276 279
236 237 241 243 241 238 238 240 241 241 240 236 231 227 225 224 223 222 220 221 220 219 219 221 221 221 222 222 222 224 227 229 231 232 234 237 239 243 246 251 256 261 267 271 275 279 281 282 282 282 283 284 285 286 285 283 280 277 274 271 268 266 265 266 269 274 278 282 284
235 234 237 239 237 235 234 234 232 230 228 228 228 227 227 228 228 229 231 233 234 234 233 233 234 237 240 241 242 243 244 246 246 247 249 251 253 256 259 263 267 270 273 275 277 277 278 278 279 281 283 284 285 284 282 278 274 270 267 264 263 262 264 269 276 282 286 288 290
239 236 238 240 240 239 239 239 239 235 232 231 236 239 241 241 241 243 245 247 250 252 255 258 260 261 262 263 262 260 259 259 258 259 260 261 263 264 266 268 269 270 270 270 270 271 275 281 285 286 286 284 283 280 276 271 267 263 261 261 262 267 273 280 286 291 294 295 296
245 244 248 253 251 247 245 246 247 244 241 239 243 248 252 252 253 254 256 259 261 263 265 267 268 269 268 266 263 261 259 257 257 259 260 262 264 265 265 264 262 261 261 264 270 279 287 291 291 288 286 282 279 274 269 266 262 260 261 265 272 280 286 291 295 298 301 303 302
244 241 268 287 279 256 246 250 256 257 256 253 253 254 256 255 255 257 260 262 263 263 263 263 264 264 264 261 258 254 251 249 250 253 255 258 260 260 259 256 257 263 270 275 279 283 286 287 286 284 281 278 273 269 265 262 261 264 270 278 287 293 298 300 303 306 307 308 309
104 95 99 189 205 215 231 246 260 268 275 279 278 273 268 263 260 260 261 263 263 261 259 256 257 259 258 251 243 235 231 229 231 239 249 258 264 267 270 271 273 274 275 274 275 275 275 276 276 275 273 270 268 265 263 264 268 276 286 295 302 307 311 313 313 314 314 316 321
120 140 173 190 195 207 225 244 261 277 292 303 304 300 292 282 271 265 263 262 259 255 252 266 279 277 260 212 174 168 175 183 196 277 305 296 286 280 277 276 275 272 270 267 265 265 266 266 266 265 264 263 264 266 269 274 282 294 306 318 328 332 331 327 320 318 322 337 348
167 182 195 203 207 216 233 253 270 285 295 302 304 304 302 293 278 258 234 184 146 132 122 97 300 329 57 84 82 73 55 19 349 329 314 299 288 281 277 275 272 268 263 259 258 258 260 262 262 260 259 261 265 272 278 286 298 315 336 354 355 350 340 329 319 317 338 33 46
187 197 207 216 222 234 249 262 272 279 284 289 291 294 292 248 143 134 128 125 124 128 140 152 153 130 60 18 10 0 342 320 307 300 296 292 287 282 278 274 269 263 257 253 252 253 257 261 262 260 260 264 270 276 283 293 312 347 10 11 1 350 339 315 299 295 103 94 83
198 208 218 227 237 245 254 262 268 272 274 275 273 257 183 148 140 137 136 137 140 150 159 166 170 213 302 313 315 309 298 289 286 285 284 283 281 276 272 267 263 258 252 248 247 248 251 256 260 261 262 265 270 276 286 306 355 30 32 21 15 55 157 159 158 148 119 105 98
208 217 225 233 242 249 256 261 264 264 260 252 234 202 173 158 154 151 152 155 161 166 174 185 235 280 289 290 287 283 279 276 274 273 272 271 268 263 258 254 252 248 245 242 240 239 240 244 248 251 252 254 261 275 310 36 69 81 93 112 132 140 145 149 152 147 133 121 117
216 223 230 235 242 250 257 260 257 249 239 224 208 192 180 177 178 177 177 179 183 193 210 245 271 280 279 275 272 271 269 267 264 259 256 253 248 244 240 239 237 234 231 229 226 224 223 222 218 211 198 180 132 100 95 99 107 115 126 134 139 143 146 151 154 155 153 146 149
219 225 230 232 237 245 255 256 246 234 221 206 195 194 200 211 216 217 218 219 226 237 251 263 271 272 268 262 258 258 257 253 243 233 226 223 220 220 220 218 215 212 209 205 200 195 188 177 160 143 129 117 109 109 111 116 120 126 131 137 143 147 153 157 162 164 169 177 208
218 218 217 212 205 197 179 333 301 287 278 265 248 239 236 237 240 241 243 246 252 259 263 264 264 260 254 248 248 249 247 234 214 204 200 200 200 201 199 196 190 185 179 170 162 154 145 138 130 124 119 115 114 115 118 122 126 131 137 143 148 153 159 165 170 178 195 232 268
215 206 193 178 159 128 5 328 317 307 297 285 273 262 254 249 248 248 251 254 258 259 257 251 243 236 235 239 244 243 233 213 198 191 188 188 187 186 183 178 168 158 148 141 136 132 130 127 124 121 119 118 118 119 123 128 133 139 145 150 156 164 173 184 196 219 252 277 288
209 188 166 148 96 343 325 316 311 306 298 288 278 269 261 255 252 250 249 248 248 243 234 223 220 223 233 240 239 228 212 199 190 184 180 176 175 174 171 163 149 137 131 129 129 128 127 126 125 123 121 121 121 124 129 135 141 146 153 163 176 190 207 233 265 282 291 294 296
199 165 124 7 332 320 313 307 305 304 301 294 285 275 264 255 248 239 230 227 231 228 221 215 218 223 227 225 217 204 193 185 179 171 164 157 157 159 158 148 135 128 127 128 128 129 128 127 127 125 124 124 127 132 138 144 150 158 171 198 237 267 290 301 303 302 300 299 297
206 202 274 301 298 294 291 289 291 294 294 289 279 265 248 233 221 205 202 216 220 217 214 215 214 210 205 199 188 180 173 167 161 151 142 135 134 138 140 136 131 128 128 129 129 129 128 128 127 126 125 128 134 140 147 154 168 205 260 286 302 311 313 310 306 304 302 300 297
196 211 242 259 265 267 267 268 271 274 272 261 246 228 214 208 204 200 203 212 209 205 203 203 197 191 186 182 173 163 154 148 141 135 130 129 129 132 134 134 132 130 128 128 127 127 127 126 123 122 122 124 130 137 161 288 298 300 303 307 312 312 309 305 304 303 301 298 296
193 212 231 242 248 252 255 258 261 261 256 242 231 226 224 216 206 202 202 207 202 197 193 189 182 178 175 171 163 154 146 140 136 133 132 133 134 135 135 135 132 128 126 125 124 124 121 116 111 105 96 61 0 336 326 321 316 313 312 312 312 309 305 303 302 301 299 298 297
202 215 227 235 240 244 249 254 257 255 249 241 237 238 239 230 209 202 202 204 195 189 185 180 173 169 165 162 156 148 141 138 137 137 137 138 137 136 134 131 127 123 120 119 118 114 107 96 76 42 2 341 331 325 322 319 316 313 312 312 311 308 306 304 302 302 301 301 300
209 217 225 232 237 242 246 250 250 247 244 243 242 242 238 223 206 203 203 200 189 180 178 173 166 161 157 155 151 145 139 137 138 139 140 139 137 132 128 122 117 113 111 109 103 90 70 34 2 343 333 327 322 318 314 313 311 310 309 308 309 309 308 306 305 305 304 304 303